DW5479 Weather Reports


time (UTC)temp
F
wind
direction
speed
knots
gust
knots
rain 1hr
in
rain 24hr
in
rain mn
in
humidity
%
barometer
mb
20260503184558 76 144 3.5 7.0 0.00 0.00 0.00 43 1020.6
20260503183046 76 158 0.9 6.1 0.00 0.00 0.00 44 1020.8
20260503181609 76 172 1.7 6.1 0.00 0.00 0.00 43 1021.1
20260503180029 75 173 2.6 6.1 0.00 0.00 0.00 44 1021.5
20260503174551 75 183 1.7 8.7 0.00 0.00 0.00 46 1021.7
20260503173131 74 172 2.6 7.0 0.00 0.00 0.00 49 1022.1
20260503171517 74 193 2.6 7.0 0.00 0.00 0.00 52 1022.2
20260503160104 73 165 1.7 6.1 0.00 0.00 0.00 52 1023.0
20260503081518 54 174 0.0 0.0 0.00 0.00 0.00 84 1020.8
20260503071522 56 188 0.0 0.0 0.00 0.00 0.00 82 1021.2
20260503060105 56 172 0.0 0.0 0.00 0.00 0.00 80 1021.3
20260503054618 56 178 0.0 0.0 0.00 0.00 0.00 80 1021.3
20260503053106 56 172 0.0 0.0 0.00 0.00 0.00 78 1021.3
20260503051525 57 191 0.0 0.0 0.00 0.00 0.00 76 1021.2
20260503050036 58 154 0.0 0.0 0.00 0.00 0.00 75 1021.2
20260503044554 59 143 0.0 0.9 0.00 0.00 0.00 74 1021.1
20260503043008 59 156 0.0 0.9 0.00 0.00 0.00 75 1021.2
20260503041532 59 175 0.0 0.9 0.00 0.00 0.00 74 1021.3
20260503040045 59 162 0.0 0.9 0.00 0.00 0.00 75 1021.3
20260503034605 57 176 0.0 0.9 0.00 0.00 0.00 79 1021.1
20260503033016 56 182 0.0 0.0 0.00 0.00 0.00 76 1021.0
20260503031537 57 183 0.0 0.0 0.00 0.00 0.00 75 1020.9
20260503030006 57 173 0.0 0.0 0.00 0.00 0.00 75 1020.7
20260503024519 58 153 0.0 0.0 0.00 0.00 0.00 73 1020.5
20260503023045 59 155 0.0 0.0 0.00 0.00 0.00 75 1020.4
20260503021554 60 161 0.0 0.0 0.00 0.00 0.00 72 1020.0
20260503020007 62 193 0.0 0.0 0.00 0.00 0.00 68 1019.7
20260503014526 63 145 0.0 0.0 0.00 0.00 0.00 65 1019.6
20260503013046 65 186 0.0 0.9 0.00 0.00 0.00 60 1019.6
20260503011500 66 188 0.0 1.7 0.00 0.00 0.00 58 1019.4
20260503010016 68 175 0.0 1.7 0.00 0.00 0.00 56 1019.3
20260503004537 69 186 0.9 3.5 0.00 0.00 0.00 53 1019.2
20260503003056 70 176 1.7 5.2 0.00 0.00 0.00 50 1019.1
20260503001511 71 193 2.6 6.1 0.00 0.00 0.00 48 1019.1
20260503000026 71 172 2.6 6.1 0.00 0.00 0.00 48 1019.1
20260502234608 71 131 2.6 6.1 0.00 0.00 0.00 47 1019.2
20260502233102 72 182 2.6 7.0 0.00 0.00 0.00 45 1019.2
20260502231512 72 184 3.5 8.7 0.00 0.00 0.00 47 1019.2
20260502230033 72 146 3.5 9.6 0.00 0.00 0.00 46 1019.1
20260502224550 72 165 3.5 8.7 0.00 0.00 0.00 44 1019.1
20260502223030 72 153 2.6 10.4 0.00 0.00 0.00 47 1019.0
20260502221504 72 155 3.5 6.1 0.00 0.00 0.00 48 1019.1
20260502220032 72 139 3.5 13.0 0.00 0.00 0.00 46 1019.3
20260502214550 71 151 5.2 10.4 0.00 0.02 0.00 47 1019.3
20260502213009 71 179 4.3 13.9 0.00 0.02 0.00 47 1019.5
20260502211523 71 179 4.3 11.3 0.00 0.02 0.00 51 1019.6
20260502210041 71 177 2.6 11.3 0.00 0.02 0.00 50 1019.9
20260502204602 71 162 4.3 9.6 0.00 0.14 0.00 47 1020.1
20260502203008 71 151 2.6 13.9 0.00 0.14 0.00 50 1020.2
20260502201538 70 166 4.3 11.3 0.00 0.14 0.00 49 1020.4
20260502200034 70 188 3.5 7.8 0.00 0.14 0.00 56 1020.5
20260502194547 69 153 4.3 8.7 0.00 0.15 0.00 55 1020.6
20260502193006 69 204 5.2 10.4 0.00 0.15 0.00 55 1020.7
20260502191506 69 147 4.3 10.4 0.00 0.15 0.00 57 1020.7
20260502190024 69 166 4.3 11.3 0.00 0.15 0.00 56 1020.8